#timestamp,LO_Frequency,Hit,StdDev 
1628809215.0,286046999.9,N
1628809215.9,286046999.9,N
1628809235.8,286047000.4,N
1628809255.6,286047000.2,N
1628809275.4,286047000.7,N
1628809295.3,286047000.4,N
1628809315.1,286047001.1,N
1628809335.8,286047000.1,N
1628809355.7,286047001.6,N
1628809375.5,286047002.8,Y
1628809395.4,286047002.6,P
1628809415.2,286047002.7,N
1628809435.0,286047000.2,N
1628809435.9,286047000.2,N
1628809455.8,286047000.8,N
1628809475.6,286047001.0,N
1628809495.5,286046998.4,N
1628809515.3,286046999.3,N
1628809535.1,286046999.2,N
1628809555.9,286046999.1,N
1628809575.7,286046999.0,N
1628809595.5,286046998.5,N
1628809615.4,286047000.9,N
1628809635.2,286047000.6,N
1628809655.1,286047000.2,N
1628809656.0,286047000.2,N
1628809675.8,286047000.3,N
1628809695.6,286046999.8,N
1628809715.5,286047000.4,N
1628809735.3,286047002.7,N
1628809755.1,286047002.4,N
1628809775.9,286047000.5,N
1628809795.7,286046998.2,N
1628809815.6,286047001.0,N
1628809835.4,286047000.2,N
1628809855.2,286046998.2,N
1628809875.1,286046999.2,N
1628809876.0,286046999.2,N
1628809895.8,286046998.7,N
1628809915.7,286046996.8,N
1628809935.5,286046997.4,N
1628809955.3,286046997.7,N
1628809975.2,286046996.9,N
1628809995.0,286046998.3,N
1628809995.9,286046998.3,N
1628810015.8,286046998.2,N
1628810035.6,286047000.9,N
1628810055.4,286047002.4,N
1628810075.3,286047002.1,N
1628810095.1,286047002.0,N
1628810115.9,286047001.5,N
1628810135.7,286047002.0,N
1628810155.5,286047002.3,N
1628810175.4,286047002.2,N
1628810195.2,286046999.9,N
1628810215.0,286047002.6,N
1628810215.9,286047002.6,N
1628810235.8,286047001.6,N
1628810255.6,286047001.6,N
1628810275.5,286047001.6,N
1628810295.3,286047002.5,N
1628810315.1,286047002.3,N
1628810335.9,286047001.4,N
1628810355.7,286047001.7,N
1628810375.6,286047001.9,N
1628810395.4,286047002.1,N
1628810415.2,286047000.2,N
1628810435.1,286047002.6,N
1628810436.0,286047002.6,N
1628810455.8,286047000.9,N
1628810475.6,286047000.3,N
1628810495.5,286047000.2,N
1628810515.3,286047000.2,N
1628810535.2,286047000.2,N
1628810555.9,286046999.9,N
1628810575.7,286047000.1,N
1628810595.6,286046999.7,N
1628810615.4,286047000.3,N
1628810635.2,286047000.0,N
1628810655.1,286046999.7,N
1628810656.0,286046999.7,N
1628810675.8,286046999.7,N
1628810695.7,286046999.8,N
1628810715.5,286047002.7,N
1628810735.3,286047002.3,N
1628810755.2,286047001.8,N
1628810775.0,286047002.3,N
1628810775.9,286047002.3,N
1628810795.7,286047001.4,N
1628810815.6,286047003.9,Y
1628810835.4,286047002.3,P
1628810855.3,286047002.0,P
1628810875.1,286047002.2,P
1628810876.0,286047002.2,Y
1628810895.8,286047001.2,P
1628810915.7,286046998.2,P
1628810935.5,286046998.5,N
1628810955.4,286047000.7,N
1628810975.2,286047001.1,N
1628810995.0,286047002.0,N
1628810995.9,286047002.0,N
1628811015.8,286047001.5,N
1628811035.6,286047002.1,N
1628811055.4,286047001.5,N
1628811075.3,286047002.3,N
1628811095.1,286047002.6,N
1628811115.9,286047000.0,N
1628811135.7,286047002.4,N
1628811155.5,286047002.2,N
1628811175.4,286047000.2,N
1628811195.2,286047000.1,N
1628811215.0,286047001.3,N
1628811215.9,286047001.3,N
1628811235.8,286047000.2,N
1628811255.6,286047000.1,N
1628811275.5,286047000.7,N
1628811295.3,286046998.2,N
1628811315.1,286047000.8,N
1628811335.9,286047001.0,N
1628811355.7,286047000.5,N
1628811375.5,286047000.0,N
1628811395.4,286047000.3,N
1628811415.2,286047001.2,N
1628811435.0,286047001.1,N
1628811436.0,286047001.1,N
1628811455.8,286046998.3,N
1628811475.6,286046998.1,N
1628811495.5,286046998.4,N
1628811515.3,286046998.5,N
1628811535.2,286046998.5,N
1628811555.9,286046998.8,N
1628811575.7,286047001.2,N
1628811595.6,286047000.3,N
1628811615.4,286047001.1,N
1628811635.2,286046998.9,N
1628811655.1,286046999.0,N
1628811656.0,286046999.0,N
1628811675.8,286046996.5,N
1628811695.7,286046996.5,N
1628811715.5,286046997.1,N
1628811735.3,286046996.6,N
1628811755.2,286046999.6,N
1628811775.0,286046996.8,N
1628811775.9,286046996.8,N
1628811795.8,286046997.3,N
1628811815.6,286046995.0,Y
1628811835.4,286046995.0,P
1628811855.3,286046997.0,N
1628811875.1,286046996.6,N
1628811895.8,286046997.0,N
1628811915.7,286046997.5,N
1628811935.5,286046997.1,N
1628811955.4,286046996.9,N
1628811975.2,286046997.8,N
1628811995.0,286046995.0,Y
1628811995.9,286046995.0,P
1628812015.8,286046998.3,N
1628812035.6,286047001.0,N
1628812055.4,286047000.0,N
1628812075.3,286047000.7,N
1628812095.1,286046998.2,N
1628812115.9,286047000.8,N
1628812135.7,286047000.6,N
1628812155.5,286047000.0,N
1628812175.4,286047001.0,N
1628812195.2,286046998.6,N
1628812215.1,286047000.4,N
1628812216.0,286047000.4,N
1628812235.8,286047002.8,N
1628812255.6,286047000.1,N
1628812275.5,286047001.6,N
1628812295.3,286047002.3,N
1628812315.1,286046999.7,N
1628812335.9,286047002.1,N
1628812355.7,286047001.9,N
1628812375.6,286047001.9,N
1628812395.4,286047002.8,N
1628812415.2,286046999.8,N
1628812435.1,286047002.5,N
1628812436.0,286047002.5,N
1628812455.8,286047000.2,N
1628812475.7,286047000.7,N
1628812495.5,286046999.8,N
1628812515.3,286047002.4,N
1628812535.2,286047002.3,N
1628812555.0,286047001.3,N
1628812555.9,286047001.3,N
1628812575.8,286047002.3,N
1628812595.6,286047001.7,N
1628812615.4,286047001.8,N
1628812635.3,286047002.1,N
1628812655.1,286047002.7,N
1628812675.8,286047002.3,N
1628812695.7,286047000.8,N
1628812715.5,286047000.6,N
1628812735.4,286047000.7,N
1628812755.2,286047002.8,N
1628812775.0,286047002.3,N
1628812775.9,286047002.3,N
1628812795.8,286047002.0,N
